Location: Rock River
(41.7433°N, 105.9768°W)
Time: 14:22:53
(UTC+00:00)

Envisat - Visible Passes

Search period start: 24 January 2022 00:00
Search period end: 03 February 2022 00:00
Orbit: 764 x 766 km, 98.2° (Epoch: 23 January)

Date Brightness Start Highest point End Pass type
(mag) Time Alt. Az. Time Alt. Az. Time Alt. Az.
24 Jan 5.7 10:39:43 10° ENE 10:42:24 14° E 10:45:04 10° ESE visible
24 Jan 2.8 12:16:49 10° N 12:21:52 67° WNW 12:26:54 10° SSW visible
25 Jan 3.6 11:40:01 10° NNE 11:45:00 55° E 11:49:58 10° S visible
25 Jan 4.3 13:20:05 10° NNW 13:23:34 19° WNW 13:27:03 10° WSW visible
26 Jan 6.2 00:36:56 10° WSW 00:39:10 13° W 00:41:24 10° WNW visible
26 Jan 5.0 11:03:46 10° NE 11:07:56 25° E 11:12:03 10° SSE visible
26 Jan 3.4 12:42:20 10° N 12:47:02 39° WNW 12:51:43 10° SW visible
27 Jan 6.0 10:29:27 10° ENE 10:30:39 11° E 10:31:51 10° ESE visible
27 Jan 2.8 12:05:11 10° NNE 12:10:18 85° WNW 12:15:23 10° SSW visible
27 Jan 4.8 13:46:58 10° NW 13:48:30 11° WNW 13:50:01 10° WNW visible
28 Jan 4.0 11:28:31 10° NNE 11:33:22 43° E 11:38:11 10° S visible
28 Jan 4.0 13:08:07 10° NNW 13:12:06 24° WNW 13:16:04 10° WSW visible
29 Jan 5.4 10:52:35 10° NE 10:56:14 20° E 10:59:52 10° SE visible
29 Jan 3.1 12:30:36 10° N 12:35:30 49° WNW 12:40:23 10° SW visible
30 Jan 3.1 11:53:36 10° NNE 11:58:42 76° ESE 12:03:46 10° S visible
30 Jan 4.6 13:34:26 10° NNW 13:37:04 14° WNW 13:39:42 10° W visible
31 Jan 4.5 11:17:06 10° NNE 11:21:43 34° E 11:26:17 10° SSE visible
31 Jan 3.8 12:56:16 10° N 13:00:37 29° WNW 13:04:56 10° SW visible
01 Feb 5.7 10:41:35 10° NE 10:44:31 15° E 10:47:27 10° SE visible
01 Feb 2.9 12:18:55 10° N 12:23:57 63° WNW 12:28:57 10° SSW visible
02 Feb 3.5 11:42:03 10° NNE 11:47:06 59° E 11:52:05 10° S visible
02 Feb 4.3 13:22:17 10° NNW 13:25:37 18° WNW 13:28:57 10° WSW visible
